Weather History for Atlantic City, NJ

Change the Weather History Date:

Thursday, November 7, 2013

  Actual Average Record
Temperature  
Mean Temperature 50 °F 50 °F  
Max Temperature 62 °F 60 °F 72 °F (1965)
Min Temperature 37 °F 40 °F 23 °F (1962)
Degree Days  
Heating Degree Days 15 16  
Month to date heating degree days 101 103  
Since 1 July heating degree days 466 461  
Cooling Degree Days 0 0  
Month to date cooling degree days 0 0  
Year to date cooling degree days 1088 1054  
Moisture  
Dew Point 55 °F    
Average Humidity 90    
Maximum Humidity 100    
Minimum Humidity 80    
Precipitation  
Precipitation 0.25 in 0.11 in 2.74 in (1953)
Month to date precipitation 0.46 0.78  
Year to date precipitation 37.97 35.57  
Snow  
Snow 0.00 in 0.00 in 2.50 in (2012)
Month to date snowfall 0.0 0.0  
Since 1 July snowfall 0.0 0.0  
Since 1 September snowfall 0.0 0.0  
Snow Depth 0.00 in    
Sea Level Pressure  
Sea Level Pressure 29.92 in    
Wind  
Wind Speed 9 mph (WSW)    
Max Wind Speed 25 mph    
Max Gust Speed 31 mph    
Visibility 9 miles    
Events Rain    
T = Trace of Precipitation, MM = Missing Value Source: NWS Daily Summary

Daily Weather History Graph

Daily Weather History Graph

Search for Another Location

Airport:

Trip Planner

Search our weather history database for the weather conditions in past years. The results will help you decide how hot, cold, wet, or windy it might be!

Date:

Astronomy

Nov. 07, 2013 Rise Set
Actual Time 6:33 AM EST 4:50 PM EST
Civil Twilight 6:05 AM EST 5:18 PM EST
Nautical Twilight 5:33 AM EST 5:50 PM EST
Astronomical Twilight 5:01 AM EST 6:21 PM EST
Moon 10:39 AM EST (11/7) 8:59 PM EST (11/7)
Length of Visible Light 11h 13m
Length of Day
10h 16m
Waxing Crescent, 22% of the Moon is Illuminated
Nov 7
Waxing Crescent
Nov 10
First Quarter
Nov 17
Full
Nov 25
Last Quarter
Dec 2
New

Hourly Weather History & Observations

Time (EST) Temp. Windchill Dew Point Humidity Pressure Visibility Wind Dir Wind Speed Gust Speed Precip Events Conditions
12:02 AM 61.0 °F - 57.9 °F 90% - 10.0 mi South 9.2 mph - 0.00 in Rain Light Rain
12:54 AM 61.0 °F - 60.1 °F 97% 30.11 in 10.0 mi SSW 10.4 mph - 0.00 in   Overcast
1:54 AM 61.0 °F - 60.1 °F 97% 30.09 in 10.0 mi SSW 10.4 mph 19.6 mph N/A   Overcast
2:26 AM 61.0 °F - 61.0 °F 100% - 10.0 mi South 10.4 mph - 0.01 in Rain Light Rain
2:54 AM 61.0 °F - 61.0 °F 100% - 10.0 mi SSW 10.4 mph - 0.01 in   Overcast
3:34 AM 62.1 °F - 61.0 °F 96% 30.00 in 10.0 mi South 10.4 mph 18.4 mph N/A   Overcast
3:54 AM 62.1 °F - 61.0 °F 96% 30.01 in 10.0 mi SSW 9.2 mph - N/A   Overcast
4:54 AM 62.1 °F - 61.0 °F 96% 30.01 in 10.0 mi SW 10.4 mph - N/A   Overcast
5:54 AM 62.1 °F - 61.0 °F 96% 29.98 in 10.0 mi WSW 10.4 mph - N/A   Overcast
6:38 AM 62.1 °F - 61.0 °F 96% 29.92 in 10.0 mi SW 9.2 mph - N/A   Overcast
6:54 AM 62.1 °F - 61.0 °F 96% 29.96 in 9.0 mi SW 9.2 mph - N/A   Overcast
7:54 AM 62.1 °F - 61.0 °F 96% 29.96 in 9.0 mi SW 13.8 mph - 0.02 in Rain Rain
8:54 AM 62.1 °F - 61.0 °F 96% 29.96 in 5.0 mi SW 10.4 mph - 0.07 in Rain Rain
9:18 AM 62.1 °F - 61.0 °F 96% 29.91 in 10.0 mi SSW 11.5 mph 19.6 mph 0.05 in Rain Rain
9:54 AM 62.1 °F - 61.0 °F 96% 29.94 in 10.0 mi SW 11.5 mph 18.4 mph 0.07 in Rain Light Rain
10:25 AM 62.1 °F - 60.1 °F 93% 29.89 in 10.0 mi WSW 8.1 mph - 0.02 in Rain Light Rain
10:54 AM 62.1 °F - 61.0 °F 96% 29.93 in 10.0 mi WSW 10.4 mph - 0.04 in Rain Light Rain
11:12 AM 62.1 °F - 61.0 °F 96% 29.85 in 10.0 mi WSW 8.1 mph - 0.00 in Rain Light Rain
11:54 AM 62.1 °F - 61.0 °F 96% 29.82 in 10.0 mi SW 5.8 mph - 0.02 in Rain Light Rain
12:54 PM 62.1 °F - 60.1 °F 93% 29.80 in 8.0 mi West 5.8 mph - 0.00 in   Overcast
1:02 PM 62.1 °F - 60.1 °F 93% 29.80 in 8.0 mi West 8.1 mph - N/A   Overcast
1:11 PM 62.1 °F - 60.1 °F 93% 29.80 in 9.0 mi West 9.2 mph - N/A   Overcast
1:54 PM 61.0 °F - 57.9 °F 90% 29.81 in 8.0 mi West 11.5 mph 20.7 mph 0.00 in   Overcast
2:54 PM 55.9 °F - 54.0 °F 93% 29.83 in 9.0 mi NNW 16.1 mph 31.1 mph 0.01 in Rain Light Rain
3:09 PM 55.0 °F - 53.1 °F 93% 29.83 in 9.0 mi NW 15.0 mph - 0.00 in Rain Light Rain
3:54 PM 55.0 °F - 53.1 °F 93% 29.84 in 10.0 mi WNW 10.4 mph - 0.01 in   Overcast
4:54 PM 55.0 °F - 53.1 °F 93% 29.85 in 10.0 mi NW 11.5 mph - N/A   Overcast
5:43 PM 52.0 °F - 46.9 °F 83% 29.88 in 10.0 mi NNW 24.2 mph 29.9 mph N/A   Overcast
5:54 PM 50.0 °F - 45.0 °F 83% 29.90 in 10.0 mi NNW 19.6 mph - N/A   Mostly Cloudy
6:03 PM 50.0 °F - 44.1 °F 80% 29.90 in 10.0 mi NNW 17.3 mph - N/A   Mostly Cloudy
6:54 PM 46.9 °F - 42.1 °F 83% 29.93 in 9.0 mi NW 13.8 mph - N/A   Clear
7:54 PM 44.1 °F 40.8 °F 41.0 °F 89% 29.96 in 9.0 mi NW 5.8 mph - N/A   Clear
8:54 PM 43.0 °F 39.5 °F 39.9 °F 89% 29.98 in 9.0 mi WNW 5.8 mph - N/A   Clear
9:54 PM 42.1 °F 40.2 °F 39.9 °F 92% 29.99 in 9.0 mi West 3.5 mph - N/A   Clear
10:54 PM 37.9 °F - 37.0 °F 97% 29.98 in 10.0 mi Calm Calm - N/A   Scattered Clouds
11:54 PM 43.0 °F - 39.9 °F 89% 29.99 in 8.0 mi Calm Calm - N/A   Overcast